Regional Weather Roundup
Issued by NWS Portland, ME

Home | Current Version | Previous Version | Text Only | Print | Product List | Glossary On
Versions: 1 2 3 4 5 6 7 8 9 10 11 12 13 14 15 16 17 18 19 20 21 22 23 24 25 26 27 28 29 30 31 32 33 34 35 36 37 38 39 40 41 42 43 44 45 46 47 48 49 50
000
ASUS41 KGYX 041610
RWRGYX
WEATHER ROUNDUP FOR MAINE AND NEW HAMPSHIRE
NATIONAL WEATHER SERVICE GRAY ME
1200 PM EDT FRI SEP 04 2015

MEZ002-005-006-010-012-015-018-020-021-024-026-027-029-041700-
MAINE

CITY           SKY/WX    TMP DP  RH WIND       PRES   REMARKS
PORTLAND       MOSUNNY   70  53  54 E8        30.23R
SANFORD        MOSUNNY   70  52  52 E9        30.23S
BAR HARBOR     MOSUNNY   70  46  43 E9        30.21S
WISCASSET      SUNNY     71  49  45 E7        30.23S
ROCKLAND       SUNNY     66  48  52 NE8       30.21S
FRYEBURG       SUNNY     70  56  61 CALM      30.24S
LEWISTONAUBURN SUNNY     72 N/A N/A NE7       30.23S
AUGUSTA        SUNNY     67  49  52 NW3       30.24R
WATERVILLE     SUNNY     66  48  52 E3        30.21S
BANGOR         MOSUNNY   69  46  43 N7        30.23R
GREENVILLE       N/A     65  48  54 VRB3      30.22S
MILLINOCKET    SUNNY     68  46  45 MISG      30.24R
HOULTON        SUNNY     66  44  45 VRB6      30.21S
PRESQUE ISLE   SUNNY     63  43  48 NE7       30.22F
FRENCHVILLE    SUNNY     63  45  51 VRB5      30.23S
CARIBOU        SUNNY     65  44  46 NE8       30.22S
$$

NHZ002-005-008-009-011-012-014-041700-
NEW HAMPSHIRE

CITY           SKY/WX    TMP DP  RH WIND       PRES   REMARKS
PORTSMOUTH     PTSUNNY   69  55  60 NE10      30.20R
ROCHESTER      SUNNY     72  55  55 E10       30.21S
NASHUA         PTSUNNY   73  54  51 NE7       30.20R
MANCHESTER     PTSUNNY   74  52  46 N8        30.18S
CONCORD        SUNNY     73  52  47 NE8       30.21S
LACONIA        SUNNY     68  50  52 NE8       30.21F
PLYMOUTH       FAIR      72  49  44 SE3       30.21S
BERLIN         SUNNY     70  50  49 SW6       30.23S
WHITEFIELD     SUNNY     73  52  47 CALM      30.21S
JAFFREY        PTSUNNY   69  53  56 VRB6      30.22R
KEENE          CLOUDY    72  50  46 NE8       30.20S
LEBANON        SUNNY     73  51  46 VRB5      30.20R
MT WASHINGTON  MOSUNNY   54  41  62 N6          N/A
$$

VTZ005-007-008-041700-
VERMONT

CITY           SKY/WX    TMP DP  RH WIND       PRES   REMARKS
ST JOHNSBURY     N/A     71  54  54 MISG      30.19S
MONTPELIER     SUNNY     72  56  57 SW5       30.24S
BURLINGTON     MOSUNNY   76  55  48 CALM      30.18S
$$

MAZ007-012-024-CTZ003-RIZ002-NYZ038-NYZ072-041700-
SOUTHERN NEW ENGLAND AND NY

CITY           SKY/WX    TMP DP  RH WIND       PRES   REMARKS
BOSTON         CLOUDY    69  57  65 NE16      30.19R
WORCESTER      CLOUDY    70  53  54 NE10      30.20R
NANTUCKET      PTSUNNY   75  66  73 NE16G24   30.11R
PROVIDENCE     MOSUNNY   76  58  53 NE13      30.15R
HARTFORD       MOSUNNY   78  57  48 N9        30.13S
ALBANY         MOSUNNY   77  60  55 CALM      30.14S
NEW YORK CITY  CLOUDY    79  67  66 NE16      30.08R
$$

ANZ081-ANZ082-ANZ150-NHZ014-MEZ023>029-041700-
COASTAL MARINE OBSERVATIONS

STATION/POSITION TIME  TEMP    WIND        PRES    WAVE
                       AIR SEA DIR/SP/G            HT/PER
                 (UTC) (F)     (DEG/KT/KT) (MB)    (FT/S)
MOUNT DESERT ROC 1600   58      40/ 12/ 13 1023.2R
MATINICUS ROCK   1600           60/  9/ 10 1023.1R
ISLE OF SHOALS   1600   63      50/ 19/ 22 1022.2R
JEFFREYS LEDGE   1503      62                N/A     5/ 6
CASHES LEDGE BUO 1550   61                 1022.4R   4/ 6
GEORGES BANK BUO 1550   67 68   40/ 16/ 17 1016.7R   1/12
$$

.............KEY..............
   WCI - WIND CHILL
   TC  - TEMPERATURE IN CELSIUS
   VSB - VISIBILITY IN MILES
   HX  - HEAT INDEX
   FAIR- INDICATES FEW OR NO CLOUDS BELOW 12,000 FT, WITH NO
         SIGNIFICANT WEATHER AND/OR OBSTRUCTIONS TO VISIBILITY.





USA.gov is the U.S. government's official web portal to all federal, state and local government web resources and services.